Temperature
9 9 9 9 9 9 9 9 8 9 10 11 11 11 11 11 11 10 10 9 9 8 8 7 7 7 6 6 6 6 6 6 5 5 5 5 5 5 5 4 4 4 4 4
8 9 9 9 9 9 9 9 9 10 10 11 11 12 11 11 11 10 10 9 8 8 7 7 6 6 6 6 5 5 5 5 5 5 4 4 4 4 4 4 4 4 3 3
7 8 8 7 8 9 9 9 10 9 10 10 10 10 10 11 10 9 9 8 8 7 7 6 6 5 5 5 5 5 4 4 4 4 4 4 4 4 3 3 3 3 3 3
6 6 5 8 11 10 10 10 10 10 10 10 10 10 10 10 9 9 8 8 7 6 6 5 5 5 5 4 4 4 4 3 3 3 3 3 3 3 3 3 3 2 2 2
5 5 6 9 10 10 9 9 10 9 9 9 10 9 9 9 8 8 7 7 6 6 5 5 4 4 4 4 4 3 3 3 3 2 2 2 2 2 2 2 2 2 2 2
5 5 5 8 9 10 9 7 9 9 8 8 8 6 7 8 7 7 6 6 5 5 4 4 4 4 3 3 3 2 2 2 2 2 1 1 1 1 2 1 1 1 1 1
5 5 6 8 9 9 6 7 8 9 8 8 7 7 7 7 6 6 5 5 4 4 4 3 3 3 3 2 2 2 1 1 1 1 1 1 1 1 1 1 0 0 0 0
5 5 5 8 7 7 7 8 8 8 7 7 7 6 6 6 5 5 4 4 4 3 3 3 2 2 2 2 1 1 1 1 1 0 0 -0 -0 -0 -0 -1 -1 -1 -1 -0
5 6 7 7 7 7 7 7 7 7 6 6 6 5 5 4 4 4 3 3 3 3 2 2 2 1 1 1 1 0 0 -0 -0 -0 -1 -1 -1 -1 -1 -1 -1 -2 -2 -2
5 5 6 6 6 6 6 6 6 6 5 5 5 4 4 4 3 3 3 3 2 2 2 1 1 1 0 0 0 -0 -0 -1 -1 -1 -1 -2 -2 -2 -2 -2 -2 -2 -3 -2
4 5 6 6 6 6 5 5 5 5 4 4 4 3 3 3 2 2 2 2 2 1 1 0 0 -0 -0 -1 -1 -1 -1 -2 -2 -2 -2 -2 -2 -3 -3 -3 -3 -3 -3 -3
4 5 5 5 5 5 5 4 4 4 4 3 3 3 2 2 2 2 1 1 1 0 -0 -0 -1 -1 -1 -1 -1 -2 -2 -2 -2 -3 -3 -3 -3 -3 -3 -4 -4 -3 -3 -4
5 5 5 5 5 4 4 4 3 3 3 2 2 2 2 1 1 1 1 0 -0 -1 -1 -1 -1 -2 -2 -2 -2 -2 -2 -3 -3 -3 -3 -4 -4 -4 -4 -4 -4 -4 -4 -4
4 4 4 4 3 3 3 3 2 2 2 2 1 1 1 0 0 -0 -0 -1 -1 -1 -2 -2 -2 -2 -2 -2 -3 -3 -3 -3 -3 -4 -4 -4 -4 -5 -5 -5 -5 -4 -4 -4
3 3 3 3 2 2 2 2 1 1 1 1 0 0 -0 -1 -1 -1 -1 -2 -2 -2 -2 -2 -2 -3 -3 -3 -3 -3 -3 -3 -4 -4 -4 -4 -5 -5 -5 -5 -5 -5 -5 -5
2 2 1 1 1 1 1 0 0 -0 -0 -1 -1 -1 -1 -1 -2 -2 -2 -2 -2 -3 -3 -3 -3 -3 -3 -3 -3 -4 -4 -4 -4 -5 -5 -5 -5 -5 -5 -6 -6 -6 -6 -6
0 0 0 -0 -0 -0 -0 -1 -1 -1 -1 -1 -2 -2 -2 -2 -2 -2 -3 -3 -3 -3 -3 -3 -3 -4 -4 -4 -4 -4 -4 -5 -5 -5 -5 -6 -6 -6 -6 -6 -6 -6 -6 -6
-0 -0 -0 -1 -1 -1 -1 -2 -2 -2 -2 -2 -2 -2 -2 -3 -3 -3 -3 -3 -3 -3 -4 -4 -4 -4 -4 -4 -4 -5 -5 -5 -5 -6 -6 -6 -6 -6 -6 -6 -6 -6 -6 -6
-1 -1 -1 -2 -2 -2 -2 -2 -3 -3 -3 -3 -3 -3 -3 -3 -3 -3 -4 -4 -4 -4 -4 -4 -4 -5 -5 -5 -5 -5 -5 -5 -6 -6 -6 -6 -6 -6 -6 -6 -6 -7 -7 -7
-2 -2 -2 -2 -3 -3 -3 -3 -3 -3 -3 -3 -3 -3 -3 -4 -4 -4 -4 -4 -4 -5 -5 -5 -5 -5 -5 -5 -6 -6 -6 -6 -6 -6 -6 -7 -7 -7 -7 -7 -7 -7 -7 -7
-3 -3 -3 -3 -3 -3 -4 -4 -4 -4 -4 -4 -4 -4 -4 -4 -4 -5 -5 -5 -5 -5 -5 -5 -5 -6 -6 -6 -6 -6 -6 -7 -7 -7 -7 -7 -7 -7 -7 -7 -7 -7 -7 -7
-4 -4 -4 -4 -4 -4 -4 -4 -4 -4 -4 -5 -5 -5 -5 -5 -5 -5 -5 -6 -6 -6 -6 -6 -6 -6 -6 -6 -7 -7 -7 -7 -7 -7 -7 -7 -7 -7 -7 -7 -7 -7 -7 -7
-5 -5 -5 -5 -5 -5 -5 -5 -5 -5 -5 -5 -5 -5 -6 -6 -6 -6 -6 -6 -6 -6 -6 -6 -7 -7 -7 -7 -7 -7 -7 -7 -8 -8 -8 -8 -8 -8 -8 -7 -7 -7 -7 -7
-5 -5 -5 -5 -5 -5 -6 -6 -6 -6 -6 -6 -6 -6 -6 -6 -6 -7 -7 -7 -7 -7 -7 -7 -7 -7 -7 -7 -7 -8 -8 -8 -8 -8 -8 -8 -8 -8 -8 -8 -8 -8 -7 -7
-6 -6 -6 -6 -6 -6 -6 -6 -6 -6 -7 -7 -7 -7 -7 -7 -7 -7 -7 -7 -7 -7 -7 -7 -8 -8 -8 -8 -8 -8 -8 -8 -8 -8 -8 -8 -8 -8 -8 -8 -8 -8 -8 -7
-6 -6 -7 -7 -7 -7 -7 -7 -7 -7 -7 -7 -7 -8 -8 -8 -8 -8 -8 -8 -8 -8 -8 -8 -8 -8 -8 -8 -8 -8 -8 -8 -8 -8 -8 -8 -8 -8 -8 -8 -8 -8 -8 -7
-7 -7 -7 -7 -7 -7 -8 -8 -8 -8 -8 -8 -8 -8 -8 -8 -8 -8 -8 -8 -8 -8 -8 -8 -8 -9 -8 -8 -9 -9 -9 -9 -9 -9 -8 -8 -8 -8 -8 -8 -8 -8 -8 -8
Wind_Speed
9 7 6 8 10 12 14 12 10 10 12 11 7 5 3 2 2 2 2 2 2 1 0 1 2 2 2 3 3 3 4 4 4 5 5 5 6 5 6 6 6 6 6 7
8 9 9 11 12 13 14 14 15 15 16 10 7 5 4 3 2 2 2 2 1 1 1 2 2 2 3 3 3 3 4 5 5 5 5 6 6 6 6 6 6 6 6 7
6 6 7 12 14 16 14 13 13 17 14 7 6 6 3 2 2 2 2 2 1 1 1 2 2 3 3 3 3 3 4 5 6 6 6 7 7 6 6 6 6 6 6 6
3 4 11 8 5 11 13 13 13 10 8 7 6 4 3 1 1 2 2 2 2 2 2 2 2 3 3 3 3 4 4 5 6 6 7 8 7 7 7 6 6 6 6 6
4 6 8 7 6 6 7 9 8 8 7 4 2 2 2 0 2 4 3 3 2 1 1 2 2 2 3 3 3 4 5 5 6 7 7 8 8 8 7 7 7 7 6 6
6 6 7 3 2 2 1 5 4 4 4 2 1 2 3 3 5 5 4 3 2 2 1 2 3 3 3 4 4 5 5 6 6 6 7 8 8 8 7 7 7 6 6 5
10 8 7 3 3 5 5 4 2 2 1 1 2 2 2 5 5 4 3 2 2 1 1 2 3 2 3 4 5 5 5 5 6 6 7 8 7 6 6 6 7 6 6 5
8 8 7 2 4 4 2 2 4 3 3 3 2 3 4 4 3 3 2 1 1 1 2 2 3 3 4 5 5 5 5 6 6 6 6 7 6 6 6 6 6 6 5 6
5 5 1 2 2 1 2 2 2 2 3 3 2 2 2 2 1 0 0 1 1 1 2 3 3 2 4 5 4 5 5 6 6 6 5 5 6 6 6 5 4 5 5 6
4 4 2 1 1 2 1 1 1 2 2 2 1 1 0 1 1 1 1 0 1 1 3 4 4 3 4 4 4 4 5 6 5 6 6 6 5 5 5 5 5 5 5 5
6 5 3 3 3 2 1 1 1 1 1 0 1 1 2 2 2 1 1 1 0 1 2 4 4 4 4 4 4 4 5 5 5 5 5 5 5 4 5 4 5 6 5 4
6 4 4 4 2 1 2 2 2 1 1 1 1 2 2 2 2 1 2 1 1 1 2 4 4 4 4 3 3 4 4 5 4 4 5 5 5 6 7 8 10 10 10 8
5 4 4 3 2 2 2 1 1 1 1 1 1 0 1 1 1 1 1 1 2 2 3 3 4 4 4 3 3 3 4 4 4 4 4 5 5 5 6 8 9 9 10 11
4 3 3 2 2 1 0 1 1 1 1 0 0 0 1 1 1 1 2 1 1 2 3 3 4 4 4 3 3 4 4 5 5 4 4 4 4 5 5 6 7 6 7 10
3 2 2 1 1 1 1 1 0 1 0 0 0 1 1 1 1 2 1 1 1 2 3 3 4 4 4 3 4 4 4 3 3 3 3 4 4 4 4 5 5 6 5 7
2 1 0 1 1 0 0 1 1 1 1 1 1 1 1 0 1 1 1 1 1 3 3 3 4 4 4 3 4 3 3 6 6 4 4 4 4 4 4 4 5 5 5 6
2 2 2 1 1 0 1 1 1 1 1 1 0 1 1 0 1 2 2 1 1 2 3 3 4 4 4 3 3 3 3 4 6 5 3 3 3 3 3 4 4 5 5 6
0 1 0 1 1 1 1 1 1 1 1 0 0 1 0 1 2 2 2 1 1 2 3 3 4 4 3 3 3 3 3 3 3 3 3 3 4 3 3 3 4 5 5 6
3 3 3 3 2 2 1 1 1 1 1 1 1 0 1 1 1 2 1 1 2 3 4 4 6 5 4 5 5 2 2 3 3 3 3 5 5 3 3 3 4 4 5 5
5 5 5 4 4 3 2 2 2 2 2 1 1 1 1 2 1 1 1 1 2 2 3 4 4 4 4 4 5 2 2 2 3 3 3 3 3 3 3 4 4 4 4 4
4 4 4 4 4 4 3 2 2 2 2 2 1 1 1 2 2 1 1 2 3 3 4 5 4 3 3 4 5 2 2 2 3 2 3 3 3 3 4 4 4 4 4 4
3 3 3 3 3 3 3 3 2 2 2 2 2 2 1 2 2 2 2 2 3 5 4 3 3 4 5 5 2 2 2 3 3 2 2 3 3 3 4 4 4 4 4 4
3 3 3 3 2 2 3 3 2 2 2 2 2 2 2 2 2 2 3 3 3 5 4 3 5 7 7 4 2 2 2 3 3 3 3 2 3 3 3 4 4 4 4 4
3 3 3 2 2 2 2 3 2 2 1 2 2 2 1 2 2 2 2 5 6 6 4 5 8 8 7 3 2 2 2 3 3 3 3 3 3 3 3 3 3 3 3 4
2 2 2 2 2 1 1 2 2 2 2 1 2 2 1 1 2 2 3 3 6 6 4 6 8 8 4 2 2 2 2 3 3 3 2 2 3 3 3 3 3 3 3 3
2 1 1 1 1 1 1 1 1 2 2 2 2 2 2 2 2 2 2 3 4 5 4 3 4 5 3 2 2 2 2 3 4 3 3 3 3 3 3 3 3 3 3 3
1 1 1 1 2 1 1 1 1 2 2 2 3 3 3 3 3 3 3 3 3 3 3 3 3 3 3 2 2 2 2 2 2 3 2 3 3 3 3 3 3 3 2 3
Wind_Direction
260 267 248 247 237 226 227 230 236 250 252 256 253 255 246 241 198 174 183 168 162 166 331 340 347 349 344 339 344 340 335 325 308 303 301 301 296 294 294 291 290 283 282 279
255 253 252 253 245 239 239 239 244 255 260 259 273 269 254 239 210 214 210 179 154 136 16 341 333 337 337 335 333 334 328 318 314 308 303 300 295 292 289 288 286 284 284 284
246 241 265 255 234 232 234 233 236 247 252 252 256 260 261 244 207 207 206 147 111 80 27 344 334 334 328 321 329 329 320 318 320 317 311 302 298 297 291 288 289 285 280 283
242 224 239 244 220 225 235 242 237 242 244 232 238 258 281 276 189 179 138 103 76 54 15 344 338 339 332 329 328 321 316 317 319 320 317 313 304 296 293 292 291 281 278 279
215 236 261 263 239 212 224 249 236 235 240 240 234 298 295 158 128 126 108 100 99 82 16 341 333 337 334 326 320 316 312 312 315 317 316 314 308 302 298 296 293 283 280 283
215 230 240 243 189 137 122 266 250 216 212 201 149 227 234 121 99 89 82 79 74 56 14 335 325 339 328 314 316 310 310 312 315 318 315 310 308 306 304 299 295 291 285 284
225 238 255 256 158 127 182 239 65 105 135 163 187 203 126 94 82 83 79 68 57 29 334 311 318 331 312 311 309 312 320 321 317 316 315 311 309 310 311 309 306 300 289 287
213 228 243 183 145 178 209 59 52 56 66 73 65 62 74 78 78 82 80 41 360 336 314 317 328 332 314 310 318 331 330 322 316 316 318 319 316 314 316 315 310 309 306 303
212 225 279 121 149 103 64 57 42 48 63 70 70 73 65 65 66 73 232 272 339 338 322 322 329 334 316 318 334 331 324 317 316 319 319 320 319 320 319 321 316 313 314 312
246 250 248 217 27 44 43 92 74 60 58 60 74 79 37 277 272 263 261 286 351 341 323 321 329 334 321 324 331 324 318 316 318 320 322 325 324 322 320 319 317 314 314 314
257 261 261 238 246 275 316 2 42 40 57 116 187 251 259 259 267 265 270 283 306 309 303 307 319 319 322 325 330 325 319 318 321 324 322 321 321 318 315 309 307 310 310 308
247 256 255 260 260 230 222 233 239 237 231 245 217 229 238 250 262 255 250 252 269 287 295 304 312 315 320 325 331 323 316 318 320 321 319 318 320 321 321 317 320 321 321 317
261 275 263 274 288 258 239 254 267 253 234 267 287 250 249 254 255 255 255 255 257 272 287 301 309 310 316 323 327 317 309 311 314 316 315 316 319 322 322 327 328 329 330 330
287 290 269 266 280 308 19 35 23 342 305 179 170 232 236 260 271 274 270 266 281 297 299 303 307 310 318 325 324 313 307 307 311 306 306 308 313 316 317 320 325 330 332 334
316 311 261 272 54 44 57 86 126 260 215 111 127 173 179 246 277 290 311 331 328 310 304 309 311 314 324 325 319 311 311 309 307 306 306 307 312 315 317 319 320 323 330 335
296 303 217 141 151 129 120 175 194 215 183 154 111 79 62 26 315 316 327 336 321 309 310 314 313 315 321 323 317 309 306 312 318 317 315 315 316 319 321 323 324 326 329 333
255 248 236 218 229 210 139 125 147 145 122 118 119 73 62 17 317 309 313 321 310 302 311 317 313 316 318 323 317 311 309 309 316 318 315 316 316 315 316 318 320 323 325 329
280 245 166 169 157 133 106 91 96 104 127 186 142 129 182 240 272 288 300 322 331 329 329 323 320 322 321 323 319 310 306 310 317 315 316 318 316 313 312 315 320 321 323 328
46 53 62 67 75 97 102 91 85 72 52 59 83 178 269 282 287 294 318 339 329 320 324 325 329 336 329 327 331 317 313 316 317 312 313 316 322 323 323 323 322 323 324 329
57 61 65 62 57 61 63 55 53 48 35 32 29 1 336 325 326 331 343 323 303 302 309 322 328 325 322 321 328 320 311 308 307 312 318 318 318 321 325 328 330 330 329 330
64 63 66 67 61 52 46 42 46 35 15 17 19 336 315 323 334 337 331 315 312 322 323 323 327 319 318 318 322 321 314 311 310 310 314 318 320 323 327 329 328 328 329 332
61 64 62 63 64 47 31 30 35 28 17 12 8 3 354 339 338 337 316 290 307 324 331 319 313 312 319 324 326 320 315 314 312 312 312 316 318 320 324 326 326 326 330 331
57 59 56 55 58 45 27 23 22 24 13 360 351 338 326 315 317 312 309 315 317 322 329 316 315 318 323 329 320 316 314 312 310 308 307 308 310 313 316 319 321 324 327 329
55 53 51 48 52 50 28 7 14 20 6 344 328 314 312 322 326 319 303 315 325 324 324 317 320 322 325 328 320 319 316 313 307 303 303 305 306 308 312 316 320 323 325 328
54 49 43 40 34 24 7 3 9 3 355 343 331 326 318 300 291 307 312 311 317 324 326 323 324 327 331 323 325 320 316 311 309 309 307 308 309 310 310 311 315 320 325 327
44 36 23 12 356 343 337 340 343 342 348 344 341 343 341 331 317 313 313 315 316 322 326 318 318 321 325 322 319 314 308 308 312 314 310 306 303 302 304 309 311 315 319 322
29 28 26 12 1 354 349 348 341 334 335 332 328 331 333 331 330 327 320 318 320 320 317 318 319 321 324 323 318 314 310 306 303 300 302 303 303 302 305 308 313 315 319 323
Height
1416 1414 1416 1417 1418 1418 1420 1419 1423 1416 1412 1408 1407 1408 1409 1410 1411 1412 1413 1414 1415 1416 1416 1416 1415 1414 1413 1411 1409 1407 1405 1404 1402 1400 1398 1396 1394 1392 1390 1389 1387 1386 1384 1383
1417 1413 1413 1413 1412 1412 1412 1411 1411 1409 1406 1402 1403 1404 1405 1407 1408 1409 1410 1411 1412 1413 1413 1413 1412 1410 1409 1408 1406 1404 1402 1400 1398 1396 1394 1391 1389 1386 1385 1383 1382 1380 1378 1377
1417 1412 1412 1412 1404 1404 1404 1402 1403 1404 1401 1399 1401 1401 1402 1403 1405 1406 1407 1409 1410 1410 1410 1410 1409 1407 1406 1404 1402 1400 1398 1396 1393 1391 1389 1386 1384 1382 1379 1377 1375 1373 1372 1371
1416 1416 1419 1398 1389 1390 1393 1392 1393 1393 1393 1395 1396 1398 1399 1401 1402 1403 1405 1406 1407 1407 1407 1407 1406 1404 1403 1401 1399 1397 1394 1392 1390 1387 1384 1381 1379 1376 1374 1372 1370 1368 1366 1365
1415 1413 1403 1392 1387 1387 1389 1390 1388 1389 1390 1392 1393 1395 1397 1398 1399 1401 1402 1403 1404 1404 1404 1404 1403 1401 1399 1397 1395 1393 1391 1389 1386 1383 1380 1377 1374 1371 1369 1366 1364 1362 1360 1359
1410 1409 1403 1389 1384 1383 1387 1392 1385 1385 1387 1390 1392 1398 1398 1396 1397 1399 1400 1401 1402 1402 1401 1400 1399 1398 1396 1394 1392 1390 1388 1385 1382 1379 1376 1372 1369 1366 1363 1361 1359 1356 1354 1353
1404 1403 1395 1385 1383 1384 1396 1392 1385 1384 1386 1389 1391 1394 1395 1395 1396 1397 1398 1399 1399 1399 1398 1397 1396 1395 1393 1391 1389 1387 1384 1381 1378 1375 1372 1368 1365 1362 1359 1356 1354 1351 1349 1348
1398 1399 1395 1383 1383 1387 1387 1384 1384 1385 1386 1388 1390 1392 1393 1394 1395 1396 1396 1397 1397 1396 1395 1394 1393 1391 1389 1388 1386 1383 1381 1377 1374 1371 1368 1365 1361 1358 1355 1353 1350 1347 1345 1343
1389 1388 1383 1382 1382 1383 1384 1385 1385 1386 1387 1388 1390 1391 1392 1393 1394 1394 1394 1394 1394 1393 1392 1391 1390 1388 1386 1384 1382 1379 1377 1374 1371 1367 1364 1361 1358 1355 1351 1349 1346 1344 1341 1339
1385 1382 1381 1381 1381 1382 1384 1384 1385 1385 1386 1387 1389 1390 1391 1392 1392 1392 1392 1391 1391 1390 1388 1387 1386 1384 1383 1380 1378 1376 1373 1370 1367 1364 1361 1358 1355 1352 1349 1347 1344 1342 1339 1336
1382 1380 1379 1379 1380 1381 1382 1383 1383 1384 1385 1386 1387 1388 1389 1389 1389 1389 1388 1388 1387 1386 1385 1383 1382 1381 1379 1377 1375 1372 1369 1367 1364 1361 1358 1355 1352 1350 1347 1345 1343 1341 1337 1335
1380 1378 1379 1378 1379 1379 1380 1381 1381 1382 1383 1384 1384 1385 1385 1385 1385 1385 1385 1384 1383 1382 1381 1380 1378 1377 1375 1374 1372 1369 1366 1364 1361 1358 1355 1352 1349 1347 1345 1343 1341 1338 1336 1333
1375 1375 1375 1375 1376 1377 1377 1378 1379 1379 1380 1381 1381 1382 1382 1382 1382 1381 1381 1380 1380 1379 1378 1376 1375 1374 1372 1371 1368 1366 1364 1361 1359 1356 1353 1350 1347 1344 1341 1339 1337 1335 1333 1330
1371 1372 1372 1372 1373 1374 1374 1375 1375 1376 1377 1377 1378 1378 1378 1378 1378 1378 1377 1377 1376 1375 1374 1373 1372 1370 1369 1367 1365 1363 1361 1359 1356 1353 1351 1348 1345 1343 1340 1337 1334 1331 1330 1328
1368 1369 1369 1369 1370 1371 1371 1372 1372 1373 1374 1374 1374 1374 1374 1374 1374 1374 1374 1374 1373 1372 1371 1370 1369 1367 1366 1364 1362 1360 1358 1355 1353 1351 1349 1346 1343 1341 1338 1336 1333 1330 1327 1325
1365 1366 1366 1367 1367 1368 1369 1369 1370 1370 1371 1371 1371 1371 1372 1372 1372 1372 1371 1371 1370 1369 1368 1366 1365 1364 1362 1360 1358 1356 1354 1353 1351 1348 1346 1344 1341 1339 1337 1334 1332 1329 1326 1324
1363 1363 1364 1364 1365 1366 1366 1367 1367 1368 1368 1368 1369 1369 1369 1369 1369 1369 1368 1368 1367 1366 1365 1364 1362 1361 1359 1357 1355 1353 1351 1349 1348 1346 1344 1341 1339 1337 1335 1333 1330 1328 1326 1324
1360 1361 1361 1362 1362 1363 1364 1365 1365 1366 1366 1366 1366 1367 1367 1367 1366 1366 1366 1365 1364 1363 1362 1361 1360 1358 1356 1355 1353 1351 1349 1347 1345 1343 1341 1340 1338 1336 1334 1332 1330 1328 1325 1323
1358 1359 1360 1360 1361 1362 1362 1363 1363 1364 1364 1364 1364 1364 1364 1364 1364 1364 1363 1362 1361 1360 1359 1358 1357 1355 1353 1352 1350 1348 1346 1345 1343 1342 1340 1338 1337 1335 1333 1331 1329 1327 1325 1322
1358 1358 1359 1360 1360 1361 1361 1361 1362 1362 1362 1363 1362 1362 1362 1362 1362 1361 1360 1359 1359 1358 1357 1355 1354 1352 1351 1349 1348 1346 1344 1343 1341 1340 1338 1337 1335 1333 1331 1329 1328 1326 1324 1322
1358 1358 1359 1359 1360 1360 1360 1360 1361 1360 1361 1361 1360 1360 1360 1360 1359 1359 1358 1357 1356 1356 1354 1353 1352 1350 1349 1347 1346 1344 1343 1341 1340 1338 1337 1335 1334 1332 1330 1328 1327 1325 1324 1322
1358 1358 1359 1359 1359 1359 1359 1359 1359 1359 1359 1358 1358 1358 1358 1357 1357 1356 1356 1355 1354 1353 1352 1350 1349 1348 1346 1345 1343 1342 1340 1339 1338 1336 1335 1334 1332 1331 1329 1328 1326 1325 1323 1321
1358 1358 1358 1358 1358 1358 1358 1358 1358 1358 1357 1357 1356 1356 1356 1355 1355 1354 1353 1353 1352 1351 1349 1348 1347 1345 1344 1343 1341 1340 1338 1337 1336 1335 1334 1332 1331 1330 1328 1327 1326 1324 1323 1321
1358 1358 1358 1358 1358 1358 1358 1358 1357 1357 1357 1356 1355 1355 1354 1353 1353 1352 1352 1350 1349 1348 1347 1346 1344 1343 1342 1340 1339 1338 1336 1335 1334 1333 1332 1331 1330 1329 1327 1326 1325 1324 1322 1321
1358 1358 1358 1358 1357 1357 1357 1357 1356 1356 1355 1355 1354 1354 1353 1352 1351 1350 1349 1348 1347 1346 1344 1343 1342 1341 1339 1338 1337 1336 1335 1334 1333 1331 1330 1329 1328 1327 1326 1325 1324 1323 1322 1321
1358 1357 1357 1357 1357 1357 1357 1356 1355 1355 1354 1353 1352 1352 1351 1350 1349 1348 1347 1345 1344 1343 1342 1341 1339 1338 1337 1336 1335 1334 1333 1332 1331 1330 1329 1328 1327 1326 1325 1324 1323 1322 1321 1320
1357 1357 1357 1357 1356 1356 1356 1355 1354 1353 1353 1352 1351 1350 1349 1348 1347 1346 1344 1343 1342 1341 1340 1339 1337 1336 1335 1334 1333 1332 1331 1330 1329 1328 1327 1326 1325 1324 1323 1323 1322 1321 1320 1320